Location: F?ge?el
(45.8833°N, 22.5833°E)
Time: 05:48:43
(UTC+00:00)

AQUARIUS - Pass Details

Date: 17 November 2025
Orbit: 634 x 636 km, 98.0° (Epoch: 04 December)

Event Time Altitude Azimuth Distance (km) Brightness Sun altitude
Rises 15:42:14 0° 148° (SSE) 2,922 7.4 -8.2°
Reaches altitude 10° 15:44:29 10° 143° (SE) 2,018 6.5 -8.6°
Maximum altitude 15:48:40 45° 71° (ENE) 870 4.4 -9.3°
Drops below altitude 10° 15:52:53 10° 359° (N) 2,031 6.5 -10.0°
Sets 15:55:09 0° 353° (N) 2,944 7.4 -10.3°
